Location: Kaltenbach
(49.2000°N, 7.7500°E)
Time: 19:54:13
(UTC+00:00)

Cosmos 1603 - Pass Details

Date: 24 January 2020
Orbit: 831 x 859 km, 71.0° (Epoch: 16 February)

Event Time Altitude Azimuth Distance (km) Brightness Sun altitude
Rises 19:17:15 0° 329° (NNW) 3,424 7.3 -30.0°
Reaches altitude 10° 19:19:44 10° 326° (NW) 2,480 6.6 -30.4°
Enters shadow 19:25:13 60° 253° (WSW) 958 4.1 -31.3°
